Weather in Komsomolskoye

Russia / Republic of North Ossetia — Alania     43°22′30″N   44°17′31″E
temp.,
°C
wind,
m/s
gust,
m/s
humid.,
%
clouds,
%
prec.,
mm/h
press.,
hPa
HPBL,
m
24 january, sun
sun2400:00−1sse11650 0.0 102521
03:00−1wsw00680 0.0 102421
06:00−1ese00700 0.0 102421
09:000ssw11650 0.0 102334
12:00+5ene22470 0.0 1021298
15:00+6ne23470 0.0 1019299
18:00+1ene126318 0.0 102122
21:000ssw116459 0.0 102122
25 january, mon
mon2500:000wsw1167100 0.0 102122
03:00−1sw116996 0.0 102021
06:00−1wsw016861 0.0 102121
09:00+2se115478 0.0 102126
12:00+6nne224360 0.0 1019223
15:00+6nne224832 0.0 1018277
18:00+2ene12680 0.0 101922
21:00+1ne01700 0.0 101922
26 january, tue
tue2600:00+1w01710 0.0 101822
03:000wsw117328 0.0 101821
06:00+1w0071100 0.0 101922
09:00+2nnw1163100 0.0 102029
12:00+5wnw225491 0.0 1019302
15:00+7wsw124963 0.0 1019367
18:00+4s11613 0.0 102122
21:00+3se11642 0.0 102022
27 january, wed
wed2700:00+2se11671 0.0 102022
03:00+2se116721 0.0 101822
06:00+2ene116775 0.0 101622
09:00+3n116488 0.0 101537
12:00+5n1155100 0.0 1012282
15:00+6nne226096 0.0 1010402
18:00+3ne1184100 0.0 101122
21:00+2w1189100 0.0 101022
28 january, thu
thu2800:00+1sw1192100 0.0 101022
03:00+1sw1188100 0.0 100822
06:00+1w1186100 0.0 100722
09:00+3nw1278100 0.0 100753
12:00+6nw226415 0.0 1005301
15:00+9nw356012 0.0 1005614
18:00+5n118011 0.0 100622
21:00+3nnw119350 0.0 100622